Regional Weather Roundup
Issued by NWS

Home | Current Version | Previous Version | Graphics & Text | Print | Product List | Glossary On
Versions: 1 2 3 4 5 6 7 8 9 10 11 12 13 14 15 16 17 18 19 20 21 22 23 24 25 26 27 28 29 30 31 32 33 34 35 36 37 38 39 40 41 42 43 44
000
ASUS45 KSLC 251110
RWRUT

UTAH REGIONAL WEATHER ROUNDUP
NATIONAL WEATHER SERVICE SALT LAKE CITY UT
400 AM MST THU DEC 25 2014

UTZ001>011-023>025-251200-

NORTHERN UTAH

CITY           SKY/WX    TMP DP  RH WIND       PRES   REMARKS
BRIGHAM CITY   CLOUDY    32  30  93 S5        29.51R WCI  27
HILL AFB       FLURRIES  32  28  86 S12       29.50R WCI  23
LOGAN          LGT SNOW  32  30  92 NE3       29.48R FOG
OGDEN          LGT SNOW  31  30  96 SE10      29.49S FOG     WCI  22
PROVO AIRPORT  CLOUDY    34  30  86 SW6       29.49F WCI  29
SALT LAKE CITY LGT SNOW  33  26  75 NW15      29.53R WCI  23
VERNAL         CLOUDY    28  20  71 W5        29.51F WCI  23
WENDOVER       CLOUDY    34  18  51 NW18G26   29.59R WCI  23
HEBER CITY     LGT SNOW  30  28  93 E5        29.44F WCI  25
WEST JORDAN    CLOUDY    30  30 100 NW9       29.53R WCI  22

$$

UTZ012>022-026-027-251200-

SOUTHERN/CENTRAL UTAH

CITY           SKY/WX    TMP DP  RH WIND       PRES   REMARKS
BLANDING       CLOUDY    31  16  54 CALM      29.67F
BRYCE CANYON   LGT SNOW  26  23  88 W6        29.54F FOG     WCI  19
CEDAR CITY     CLOUDY    30  26  85 SW12      29.55F WCI  20
DELTA          CLOUDY    33  30  88 MISG      29.54R
MILFORD        CLOUDY    31  26  82 S17       29.54S WCI  19
MOAB/CYNLANDS  CLOUDY    29  21  72 NW8       29.51F WCI  21
PRICE          LGT SNOW  25  21  85 CALM      29.52F FOG
ST GEORGE      CLOUDY    39  28  65 SW5       29.66F
KANAB          CLOUDY    34  28  80 SW13G21   29.65R WCI  25

$$

REGIONAL REPORTS     COLORADO/ARIZONA

CITY           SKY/WX    TMP DP  RH WIND       PRES   REMARKS
CRAIG, CO      MOCLDY    28  23  81 E12G18    29.49F WCI  18
GRAND JUNCTION CLOUDY    29  20  69 SE5       29.54F WCI  24
RIFLE          LGT SNOW  25  17  72 W5        29.59F WCI  19
MONTROSE       MOCLDY    32  18  56 E7        29.56F WCI  26
CORTEZ         CLOUDY    36  14  40 SW9       29.64F WCI  29
PAGE, AZ       CLOUDY    36  16  44 CALM      29.56F
GRAND CANYON   CLOUDY    32   9  38 SW17G26   29.66S WCI  21
KINGMAN        CLOUDY    48  16  27 SW14G23   29.68R
FLAGSTAFF      CLEAR     30   8  39 SW17G26   29.69F WCI  18

$$

REGIONAL REPORTS    NEVADA/IDAHO/WYOMING

CITY           SKY/WX    TMP DP  RH WIND       PRES   REMARKS
LAS VEGAS, NV  CLOUDY    51  26  37 N13G22    29.63S
ELY            FLURRIES  24  16  71 N15       29.67R WCI  11
ELKO           CLOUDY    26  17  68 SW9G18    29.77R WCI  17
POCATELLO, ID  LGT SNOW  29  28  96 SW21G29   29.47R VSB 3/4 WCI  16
EVANSTON, WY   CLOUDY    27  26  96 SW16      29.38F WCI  15
ROCK SPRINGS   LGT SNOW  27  18  69 SE6       29.39S WCI  20
KEMMERER       CLOUDY    28  27  93 SW13      29.35F WCI  18

$$


USA.gov is the U.S. government's official web portal to all federal, state and local government web resources and services.